Location: Allen Fire Department Station 4
(33.1073°N, 96.6988°W)
Time: 10:39:53
(UTC+00:00)

Cosmos 1602 - Pass Details

Date: 03 December 2021
Orbit: 512 x 530 km, 82.5° (Epoch: 24 January)

Event Time Altitude Azimuth Distance (km) Brightness Sun altitude
Rises 23:50:04 0° 1° (N) 2,648 7.1 -6.7°
Reaches altitude 10° 23:52:16 10° 7° (N) 1,759 6.1 -7.1°
Maximum altitude 23:55:59 45° 81° (E) 719 4.0 -7.8°
Drops below altitude 10° 23:59:41 10° 155° (SSE) 1,758 6.4 -8.5°
Sets 00:01:53 0° 162° (SSE) 2,646 7.3 -9.0°
